Warning: Javascript must be enabled to use all the features on this page!


Page Loading - Please Wait...

Click to hideNews Bulletins

Peak Streamflow for the Nation

USGS 07106500 FOUNTAIN CREEK AT PUEBLO, CO.

Pueblo County, Colorado
Hydrologic Unit Code 11020003
Latitude  38°17'16", Longitude 104°36'02" NAD27
Drainage area 925  square miles
Gage datum 4,705 feet above NGVD29
Output formats
Table
Graph
Tab-separated file
peakfq (watstore) format
Reselect output format
Water
Year
Date Gage
Height
(feet)
Stream-
flow
(cfs)
1921 1921-06-04   34,0007
1922 1922-08-07 6.10 5,140
1923 1923-07-12 3.07 2,4201,5
1924 1923-10-03 5.80 12,0005
1925 1925-07-19 2.90 2,5005
1935 1935-05-30   35,0005,7
1941 1941-04-29 4.186 1,1501,5
1942 1942-08-14 8.05 11,0005
1943 1943-05-22 4.78 3245
1944 1944-08-04 8.51 12,9005
1945 1945-07-10 9.50 17,8005
1946 1946-08-26 9.00 16,5005
1947 1947-07-08 6.382 5,8805
1948 1948-06-12 7.72 9,2905
1949 1949-06-05 5.73 1,5905
1950 1950-07-28 7.80 9,6005
1951 1951-07-30 7.95 11,6005
1952 1952-08-28 5.89 5,1705
1953 1953-08-16 4.97 3,7305
1954 1954-08-06 5.82 5,8005
1955 1955-08-06 7.90 11,5005
1956 1956-08-18 5.60 5,2505
1957 1957-05-15 5.97 6,1805
1958 1958-08-05 5.75 3,7505
1959 1959-04-11 3.92 2045
1960 1960-07-13 5.52 2,5305
1961 1961-08-11 6.40 6,2005
1962 1962-07-11 5.19 2,5205
1963 1963-08-12 7.17 8,8805
1964 1964-08-06 6.37 6,1105
1965 1965-06-17 19.00 47,0005
1971 1971-05-29 5.376 2,0305
1972 1972-07-26 5.73 3,2205
1973 1973-07-20 5.862 2,9705
1974 1974-06-30 5.71 2,5605
1975 1975-07-20 3.702 5,3605
1976 1976-08-03 5.11 5,8705
1977 1977-08-18 6.286 5,1205
1978 1978-08-29 4.46 1,8605
1979 1979-05-20 3.23 9465
1980 1980-08-14 7.80 15,2005
1981 1981-07-18 4.86 3,6005
1982 1982-08-21 6.20 9,0805
1983 1983-08-13 4.85 2,9405
1984 1984-07-26 6.07 5,9405
1985 1985-07-20 5.82 4,9505
1986 1986-06-04 5.76 2,5905
1987 1987-06-09 5.24 2,6005
1988 1988-08-05 5.752 1,9805
1989 1989-06-13 5.172 1,0605
1990 1990-05-29 6.50 3,7805
1991 1991-06-06 6.31 3,2205
1992 1992-08-24 5.97 2,4405
1993 1993-06-18 6.79 2,8805
1994 1994-06-03 8.68 12,3005
1995 1995-05-17 7.46 11,3005
1996 1996-07-09 10.82 12,1005
1997 1997-06-10 8.04 10,1005
1998 1998-07-31 5.78 3,1005
1999 1999-04-30 9.72 18,9005
2000 2000-08-29 4.57 2,0805
2001 2001-09-01 5.01 1,9505
2002 2002-07-06 5.42 2,4005
2003 2003-06-20 5.90 3,5805
2004 2004-07-17 6.98 4,8805
2005 2005-08-21 6.05 2,9005
2006 2006-07-09 8.27 9,3105
2007 2007-07-19 6.33 3,7205
2008 2008-09-12 6.70 4,5405
2009 2009-08-30 5.92 2,5305
2010 2010-08-03 5.40 1,5605
2011 2011-09-15 8.94 13,8005
2012 2012-06-07 5.042 1,4605
2013 2013-09-13 8.62 11,8005
2014 2014-07-17 5.85 4,0405
2015 2015-06-16 10.87 18,5005
2016 2016-08-30 6.56 4,3105
2017 2017-07-27 6.25 3,5505
2018 2018-07-24 6.09 5,0302,5
2019 2019-08-09 5.48 3,4505
2020 2020-05-30 5.05 2,2805
2021 2021-07-24 5.60 3,7305
?
  Peak Gage-Height Qualification Codes.
?
  Peak Streamflow Qualification Codes.